Temp
9 9 9 9 9 9 9 9 9 9 10 10 10 10 10 10 10 10 9 9 8 8 8 8 8 8 8 8 8 8 8 8 8 8 8 8 8 8 8 8 7 7
10 9 9 9 9 9 9 9 9 10 10 10 10 10 10 10 10 10 10 9 8 8 8 8 7 7 7 7 7 7 8 8 8 8 8 8 8 7 7 7 7 7
10 9 9 9 9 9 9 9 10 10 10 10 10 10 10 10 10 10 10 9 8 8 8 8 7 7 7 7 7 7 7 7 7 7 7 7 7 7 7 7 7 7
9 9 9 9 9 9 9 10 10 10 10 10 10 10 10 10 10 10 9 9 9 8 8 8 7 7 7 7 7 7 7 7 7 7 7 7 7 7 7 7 7 7
9 9 9 9 9 9 9 10 10 10 10 10 9 9 9 9 9 9 9 9 9 8 8 8 7 7 7 7 7 7 7 7 7 7 7 7 7 7 7 7 7 7
9 9 9 8 9 9 9 10 10 10 10 9 9 9 9 9 9 9 9 9 8 8 8 7 7 7 7 7 7 7 7 7 8 8 8 8 8 8 7 7 7 7
9 9 9 8 9 9 9 9 9 9 9 9 9 9 9 9 9 9 8 8 8 8 7 7 7 7 7 7 7 8 8 8 8 8 8 8 8 8 8 7 7 7
8 8 8 8 8 9 9 9 9 9 9 9 9 9 9 9 8 8 8 8 8 8 7 7 7 7 7 7 8 8 8 8 8 8 8 8 8 8 8 8 7 7
8 8 8 8 8 8 8 8 9 9 9 9 9 8 8 8 8 8 8 8 8 7 7 7 7 7 7 7 7 7 8 8 8 8 8 8 8 8 8 8 7 7
8 7 7 7 8 8 8 8 8 8 8 8 8 8 8 8 7 7 7 7 7 7 7 7 7 7 7 7 7 7 7 7 8 8 8 8 8 8 8 8 7 7
7 7 7 7 7 7 8 8 8 8 8 8 8 7 7 7 7 7 7 7 7 7 7 7 7 7 7 7 7 7 7 7 7 7 8 8 8 8 8 8 7 7
7 7 7 7 7 7 7 7 7 7 7 7 7 7 6 6 6 6 6 6 6 7 7 7 7 7 7 7 7 7 7 7 7 7 7 7 7 8 8 8 7 7
7 7 7 7 6 6 6 6 6 6 7 6 6 6 6 6 6 6 6 6 6 7 7 7 7 7 7 7 7 7 7 7 7 7 7 7 7 7 7 7 7 7
7 7 6 6 6 6 6 6 6 6 6 6 6 6 6 6 6 6 6 7 7 7 7 7 7 7 7 7 7 7 7 7 7 7 7 7 7 7 7 7 7 7
6 6 6 6 6 6 6 6 6 6 6 6 6 6 6 6 6 7 7 7 7 7 7 7 7 8 8 7 7 7 7 7 7 7 7 7 7 7 7 7 7 7
5 5 5 5 5 5 6 6 6 6 6 6 6 6 6 6 6 7 7 7 7 7 7 8 8 8 8 8 7 7 7 7 7 7 7 7 7 7 7 7 7 7
5 5 5 5 5 5 5 6 6 6 6 6 6 6 6 6 6 7 7 7 7 7 7 7 8 8 8 8 7 7 7 7 7 7 7 7 7 7 7 7 7 7
6 6 6 6 6 6 6 6 5 5 6 6 6 6 6 6 6 6 6 6 6 6 7 7 7 7 7 7 7 7 7 7 7 7 7 7 7 7 7 7 7 7
6 6 6 6 6 6 6 5 5 5 5 5 5 6 6 6 6 6 6 6 6 6 6 6 7 7 7 7 7 7 7 6 7 7 7 7 7 7 7 7 7 6
5 6 6 6 5 5 5 5 5 5 5 5 5 5 5 6 6 6 6 6 6 6 6 6 6 6 6 6 6 6 6 6 6 6 7 7 7 7 7 7 6 6
5 5 5 5 5 5 5 5 5 5 5 5 5 5 5 5 6 6 6 6 6 6 6 6 6 6 5 6 6 6 6 6 6 6 6 6 7 7 6 6 6 6
5 5 5 5 5 4 4 4 4 4 4 4 4 4 4 5 5 5 5 5 5 6 6 6 6 5 5 5 5 5 5 5 5 6 6 6 6 6 6 6 6 6
5 5 5 5 5 4 3 3 3 3 3 3 3 4 4 4 4 4 4 5 5 5 5 6 6 5 4 4 4 4 4 5 5 5 5 6 6 6 6 6 6 6
5 5 5 5 5 4 4 4 3 3 3 3 3 3 3 3 3 3 4 4 4 5 5 5 5 5 4 4 4 4 4 4 5 5 5 5 5 5 5 6 6 6
4 4 4 4 4 4 4 4 3 3 3 3 2 2 2 2 2 2 3 3 3 4 4 4 5 4 4 4 4 4 4 4 4 4 5 5 5 5 5 5 5 5
2 2 2 3 3 3 3 4 3 3 3 2 2 2 2 2 2 2 2 3 3 3 4 4 4 4 4 3 3 3 3 3 4 4 4 4 4 5 5 5 5 5
Height
3115 3115 3115 3116 3116 3117 3117 3116 3115 3114 3113 3113 3114 3114 3114 3114 3115 3114 3115 3116 3116 3116 3116 3116 3116 3116 3116 3116 3115 3115 3115 3115 3116 3116 3116 3115 3116 3117 3116 3116 3116 3115
3110 3111 3111 3112 3112 3113 3112 3111 3110 3109 3109 3109 3109 3109 3109 3109 3110 3110 3110 3111 3111 3111 3112 3111 3111 3111 3112 3111 3111 3110 3110 3111 3111 3112 3111 3110 3111 3112 3112 3112 3112 3111
3106 3107 3107 3108 3108 3108 3107 3107 3106 3105 3105 3105 3105 3105 3104 3104 3104 3105 3105 3105 3106 3106 3107 3107 3106 3107 3107 3107 3107 3105 3105 3106 3106 3107 3106 3105 3106 3107 3107 3108 3108 3107
3102 3103 3103 3104 3104 3103 3103 3102 3102 3102 3101 3101 3101 3100 3100 3100 3100 3100 3101 3101 3101 3101 3102 3103 3102 3102 3102 3102 3102 3101 3100 3101 3102 3102 3101 3100 3101 3102 3102 3103 3102 3102
3097 3098 3099 3099 3099 3099 3098 3098 3098 3098 3097 3097 3097 3096 3095 3096 3095 3095 3096 3097 3097 3097 3098 3099 3098 3098 3097 3097 3096 3096 3096 3096 3097 3097 3096 3095 3095 3097 3098 3097 3097 3096
3093 3093 3094 3094 3094 3094 3094 3094 3094 3093 3093 3093 3092 3091 3091 3092 3091 3092 3092 3092 3093 3093 3093 3094 3094 3094 3093 3092 3091 3091 3091 3091 3092 3093 3092 3091 3091 3091 3092 3092 3092 3091
3088 3089 3089 3089 3089 3090 3090 3090 3090 3089 3088 3088 3088 3088 3087 3087 3087 3088 3088 3088 3088 3089 3089 3089 3089 3089 3089 3088 3087 3086 3086 3087 3087 3087 3087 3086 3086 3086 3086 3086 3086 3086
3083 3084 3084 3085 3085 3085 3085 3085 3084 3084 3084 3084 3084 3084 3083 3083 3083 3084 3084 3083 3083 3084 3084 3085 3085 3085 3084 3083 3082 3081 3082 3082 3082 3082 3082 3081 3081 3080 3081 3081 3081 3080
3079 3079 3080 3080 3080 3080 3080 3080 3080 3080 3080 3080 3080 3080 3080 3079 3080 3080 3080 3080 3079 3079 3080 3080 3080 3080 3080 3078 3077 3077 3077 3077 3077 3077 3077 3076 3076 3076 3076 3076 3075 3074
3075 3075 3075 3075 3075 3075 3075 3076 3076 3076 3076 3077 3077 3077 3077 3076 3076 3076 3076 3076 3076 3076 3076 3076 3076 3076 3075 3074 3073 3073 3072 3073 3073 3072 3072 3072 3071 3071 3070 3070 3070 3069
3071 3071 3070 3070 3071 3071 3072 3072 3072 3072 3073 3073 3073 3073 3073 3073 3073 3073 3073 3073 3073 3072 3072 3072 3072 3072 3071 3070 3070 3069 3068 3068 3068 3068 3067 3067 3066 3066 3065 3064 3064 3064
3067 3066 3066 3067 3068 3068 3068 3068 3068 3069 3069 3069 3069 3070 3070 3070 3070 3070 3070 3069 3069 3069 3068 3068 3068 3068 3067 3066 3066 3065 3064 3064 3063 3063 3063 3062 3061 3060 3059 3059 3058 3058
3064 3064 3064 3064 3064 3064 3064 3065 3065 3066 3066 3066 3066 3067 3067 3067 3067 3066 3066 3066 3065 3065 3065 3064 3064 3063 3062 3062 3062 3061 3060 3059 3058 3058 3057 3056 3056 3055 3054 3053 3053 3052
3062 3062 3062 3062 3061 3061 3062 3062 3063 3063 3063 3064 3064 3064 3064 3064 3064 3063 3063 3062 3062 3062 3061 3060 3059 3058 3057 3057 3057 3057 3056 3054 3053 3052 3051 3051 3050 3049 3049 3048 3047 3047
3060 3059 3059 3059 3059 3058 3058 3059 3060 3060 3061 3061 3061 3061 3061 3061 3060 3060 3059 3059 3058 3058 3057 3056 3054 3054 3053 3052 3052 3051 3050 3049 3048 3047 3046 3045 3044 3044 3043 3043 3042 3042
3056 3056 3056 3056 3055 3055 3054 3054 3055 3056 3057 3058 3058 3058 3057 3057 3056 3056 3055 3054 3054 3053 3052 3051 3050 3049 3048 3047 3046 3045 3044 3043 3042 3041 3040 3039 3038 3038 3037 3037 3037 3037
3052 3052 3052 3052 3051 3051 3050 3049 3049 3050 3051 3052 3053 3052 3052 3051 3050 3050 3049 3049 3048 3047 3046 3045 3045 3044 3043 3041 3040 3040 3039 3037 3036 3035 3034 3034 3033 3032 3032 3032 3032 3032
3048 3048 3047 3047 3046 3046 3045 3045 3044 3044 3044 3045 3046 3046 3045 3045 3044 3044 3043 3042 3041 3040 3039 3039 3038 3038 3036 3035 3034 3034 3032 3031 3030 3029 3028 3028 3027 3026 3026 3026 3026 3027
3042 3042 3042 3042 3041 3040 3039 3039 3038 3038 3038 3038 3039 3039 3039 3039 3038 3038 3037 3036 3034 3033 3032 3032 3031 3031 3030 3029 3028 3027 3026 3025 3024 3023 3022 3022 3021 3020 3021 3021 3021 3021
3037 3037 3037 3036 3035 3035 3034 3033 3032 3032 3032 3032 3032 3033 3033 3033 3032 3032 3031 3030 3028 3027 3026 3025 3025 3025 3023 3022 3021 3020 3020 3019 3018 3017 3017 3016 3015 3015 3015 3015 3015 3015
3031 3031 3030 3030 3029 3028 3027 3026 3026 3025 3025 3025 3025 3025 3026 3026 3025 3025 3025 3024 3023 3022 3020 3020 3020 3019 3018 3017 3015 3014 3013 3012 3012 3011 3011 3010 3010 3009 3009 3009 3009 3009
3025 3024 3024 3023 3022 3021 3020 3020 3020 3019 3019 3018 3018 3018 3018 3019 3018 3018 3018 3018 3017 3016 3015 3015 3015 3014 3012 3011 3010 3009 3008 3007 3006 3006 3005 3005 3005 3004 3004 3004 3004 3003
3020 3019 3019 3017 3016 3015 3014 3014 3013 3013 3012 3012 3011 3011 3012 3012 3012 3012 3012 3011 3011 3010 3010 3009 3009 3008 3007 3006 3006 3004 3003 3002 3002 3001 3000 3000 2999 2999 2998 2998 2998 2998
3015 3014 3014 3013 3012 3011 3009 3009 3008 3007 3007 3006 3005 3005 3005 3005 3005 3005 3006 3005 3005 3004 3004 3003 3003 3003 3002 3001 3001 3000 2998 2998 2997 2996 2995 2994 2994 2994 2993 2993 2993 2992
3009 3009 3008 3008 3007 3006 3005 3004 3003 3003 3002 3001 3000 2999 2999 2999 2999 2998 2999 2999 2999 2999 2998 2997 2996 2997 2996 2996 2995 2994 2993 2992 2991 2990 2989 2989 2989 2989 2988 2988 2987 2987
3003 3003 3003 3002 3002 3001 3001 3000 2999 2998 2997 2996 2995 2994 2994 2993 2993 2992 2992 2993 2992 2992 2992 2991 2990 2990 2990 2990 2989 2988 2987 2986 2985 2984 2984 2985 2984 2984 2983 2982 2982 2982
Wind_Speed
41 41 41 39 38 37 38 40 43 45 45 44 42 42 41 41 41 42 43 43 43 44 44 46 47 48 49 49 49 49 49 49 48 48 48 48 47 46 46 45 45 45
40 40 40 39 38 38 40 42 43 43 42 41 40 40 40 41 40 41 42 43 43 44 44 45 46 47 48 50 51 51 52 51 50 50 50 50 49 48 47 46 45 45
39 39 38 38 38 39 40 40 39 39 38 38 38 38 39 39 40 40 41 42 43 43 43 44 44 45 46 47 49 51 52 52 52 52 53 53 52 50 49 48 47 46
37 38 38 38 38 39 40 39 37 36 35 35 35 36 37 38 39 40 40 40 41 42 41 42 42 43 44 44 45 47 49 49 50 50 52 53 52 51 50 49 49 48
38 39 39 39 39 40 39 38 37 35 34 34 34 35 35 35 37 37 37 38 39 39 40 40 40 41 42 43 44 45 46 47 47 48 49 51 51 50 49 49 49 49
39 39 40 40 41 40 39 37 36 35 34 34 34 34 34 34 34 34 34 35 36 37 38 39 40 41 42 44 46 46 47 47 47 47 48 49 49 49 48 48 48 48
37 38 39 41 41 40 39 37 35 35 34 34 34 33 33 34 34 33 33 35 36 38 39 40 41 43 44 45 47 47 47 46 46 46 46 47 47 48 48 47 47 47
33 35 37 39 39 39 38 37 36 36 36 35 34 34 34 35 35 34 35 36 38 39 40 41 42 43 44 45 46 47 46 45 45 45 45 46 47 47 47 47 47 46
32 33 35 36 37 38 38 37 38 37 37 37 36 35 35 35 35 36 37 38 39 40 40 40 41 41 42 43 45 45 45 45 45 45 45 46 47 47 46 46 46 47
33 33 34 36 37 37 37 37 37 36 35 35 35 34 34 35 35 36 36 38 39 40 40 41 41 41 42 43 44 45 45 45 45 45 45 45 46 46 45 45 46 46
31 32 33 34 35 35 35 34 34 33 33 32 32 32 32 32 33 34 35 37 38 40 41 42 43 43 44 44 44 45 45 45 45 45 45 45 45 45 45 44 44 45
30 31 31 32 31 31 31 31 31 31 30 29 29 28 27 28 29 30 32 34 35 37 40 41 42 43 45 45 45 45 45 45 45 45 44 44 44 44 44 43 43 44
30 31 31 31 30 30 30 30 29 29 28 28 27 27 26 26 27 29 30 32 33 34 36 38 40 41 43 44 44 43 44 44 44 44 44 44 44 43 43 43 43 43
30 31 31 31 32 33 33 31 30 30 29 30 30 30 30 30 32 33 34 35 35 35 35 36 38 40 41 42 42 42 43 43 43 43 44 44 44 43 43 43 43 43
29 30 32 33 35 37 38 37 36 35 35 35 36 36 37 37 38 39 39 39 40 39 39 39 40 41 42 42 43 43 43 43 44 44 44 44 44 44 43 43 43 42
28 30 32 35 37 40 42 43 42 42 41 41 41 42 42 43 44 44 44 44 44 44 44 44 43 43 43 44 44 44 44 44 44 45 44 44 45 45 44 43 42 42
31 32 34 37 39 42 44 46 47 47 45 44 43 44 45 45 46 47 47 47 48 48 47 47 47 46 46 47 47 46 45 45 45 45 45 45 46 46 45 43 42 42
40 40 41 43 45 47 48 49 50 50 49 48 47 47 47 47 47 47 47 49 50 51 50 49 49 49 49 49 49 48 47 47 47 47 47 47 47 47 46 45 43 42
47 47 48 49 50 51 52 53 52 52 51 50 49 49 48 48 48 47 47 48 49 51 51 51 51 51 51 51 50 49 48 47 47 47 47 48 48 47 46 46 45 43
47 48 49 50 52 53 54 55 54 52 51 50 50 48 47 47 46 45 45 45 46 46 47 48 48 48 50 51 51 50 49 48 48 48 48 48 48 48 47 46 45 44
46 45 46 46 47 47 47 47 47 47 47 47 47 46 45 44 44 43 42 41 41 41 42 43 43 45 47 49 50 50 49 49 49 48 48 47 47 47 47 46 45 44
46 45 44 44 44 43 41 41 41 42 43 44 44 43 42 42 41 41 40 39 38 39 40 40 41 43 46 47 49 50 49 49 49 48 48 47 47 47 46 46 45 45
46 46 45 44 44 44 43 42 42 42 43 44 44 44 42 41 39 38 37 37 37 37 38 38 39 42 45 46 48 49 50 49 49 49 48 48 47 46 46 46 45 45
47 47 46 45 45 45 46 45 44 44 44 44 45 45 43 41 40 38 36 35 36 36 37 37 37 40 44 46 47 49 50 51 51 50 50 50 48 46 45 45 45 45
47 47 47 47 46 46 47 47 47 46 45 45 45 45 44 42 41 39 37 35 35 35 36 37 37 39 42 45 47 49 51 51 52 52 53 51 48 46 45 45 45 44
44 45 45 46 46 47 47 48 48 48 48 47 47 46 45 44 42 41 40 38 36 35 35 36 37 38 40 43 46 49 51 52 53 54 53 51 49 47 46 45 44 43
Wind_Direction
257 261 264 268 271 272 274 276 278 278 277 275 271 269 266 262 260 259 258 257 259 262 265 266 266 266 267 268 270 271 272 273 274 275 275 276 276 277 278 278 279 280
255 259 263 267 270 272 274 275 276 276 275 272 269 267 265 262 260 258 257 256 257 259 263 265 266 266 266 268 269 270 271 272 274 275 276 277 277 278 278 279 279 280
254 258 261 266 270 272 272 272 273 275 274 271 268 266 264 262 261 259 257 256 255 257 260 263 266 267 268 268 269 270 271 272 273 275 276 276 277 278 279 279 279 279
255 257 260 264 267 269 269 270 272 275 275 272 269 265 263 262 261 260 257 255 255 256 259 263 266 268 270 271 271 271 272 273 274 275 276 277 278 279 279 280 280 279
256 258 260 261 264 265 267 270 273 274 273 271 268 265 263 262 261 260 257 255 255 258 261 263 266 269 271 273 273 274 275 275 276 277 277 278 280 280 280 280 280 280
256 258 258 259 261 263 265 269 273 273 271 268 266 265 264 262 259 258 256 255 256 259 262 264 266 269 271 274 275 276 277 277 278 279 279 280 282 282 282 281 281 280
257 257 255 256 258 261 264 268 271 270 268 265 263 263 263 261 258 256 255 255 256 258 260 263 266 269 271 274 276 277 278 279 280 281 282 283 283 284 283 283 282 281
257 253 252 254 257 260 263 266 267 266 264 262 261 260 259 259 258 256 255 256 257 259 260 263 266 269 272 274 276 277 278 280 282 283 283 284 284 284 284 284 283 281
255 255 255 257 259 261 263 264 265 265 264 263 261 260 259 260 259 258 258 258 260 261 263 266 268 270 273 274 276 277 279 281 282 283 283 284 284 284 284 283 282 280
256 258 259 260 261 263 264 265 266 266 266 265 264 263 262 262 263 263 263 263 264 265 267 268 269 271 273 274 276 278 280 281 282 283 283 283 284 283 283 282 281 280
256 257 258 260 262 264 265 266 266 266 265 265 265 265 267 268 269 270 270 271 271 272 272 272 272 273 274 275 277 278 280 281 282 283 283 283 283 282 282 281 280 280
254 255 257 259 261 262 263 264 264 263 263 263 263 265 268 272 275 277 278 278 279 279 279 279 279 278 277 277 277 278 280 281 281 281 281 281 281 281 281 280 279 279
256 258 259 259 259 259 259 260 260 261 262 264 266 267 271 275 279 282 284 285 285 286 286 286 284 282 281 280 280 280 280 280 280 280 280 279 279 279 279 279 278 277
258 259 260 260 260 259 259 259 260 264 267 269 272 274 278 281 283 284 286 287 287 287 287 287 285 284 284 283 283 282 281 280 280 279 279 279 279 279 279 278 277 276
259 260 261 263 264 264 265 264 264 266 269 273 277 280 283 284 284 284 284 285 287 287 286 285 285 285 285 285 284 283 281 280 280 279 279 279 279 279 278 278 278 277
257 261 264 268 271 273 275 276 276 276 276 277 280 282 284 285 285 284 284 285 286 286 285 284 284 284 285 284 283 282 280 279 278 278 278 278 278 278 278 278 278 278
258 262 267 271 275 278 281 283 285 286 286 285 284 284 284 283 283 283 284 284 283 282 282 281 281 281 281 280 280 280 280 279 278 277 276 276 276 276 277 278 278 278
263 265 269 272 274 276 277 278 280 282 283 283 284 284 284 283 282 282 282 282 282 281 280 279 279 279 279 279 279 279 279 278 277 276 275 275 275 275 276 276 277 277
266 268 271 274 275 276 276 275 276 277 278 279 280 282 283 282 282 282 283 284 283 283 282 281 280 280 280 280 279 278 278 277 276 276 275 274 274 274 274 275 275 276
270 271 273 275 276 276 276 276 278 279 279 280 281 282 282 282 282 283 284 286 286 285 284 284 283 282 282 281 280 279 279 278 276 275 274 274 274 274 274 274 274 275
274 275 276 277 278 279 279 279 279 280 280 280 281 281 280 280 281 282 284 286 287 286 286 286 286 285 283 281 280 280 280 279 278 277 276 275 274 274 274 274 274 273
275 277 278 280 282 284 285 283 282 282 283 283 284 283 282 281 281 281 282 283 284 285 286 288 287 286 284 283 282 281 280 279 279 278 278 277 276 275 274 274 273 272
272 274 276 278 280 283 285 285 286 286 287 288 288 288 288 287 285 283 282 281 281 281 283 285 285 285 284 284 283 282 281 281 280 280 279 278 277 276 275 274 274 273
271 272 273 275 276 279 281 283 285 287 289 290 291 292 293 293 292 290 286 283 281 280 279 280 281 281 282 283 283 283 282 282 282 281 280 279 277 276 275 275 274 274
272 273 274 274 274 275 278 281 283 286 288 290 292 294 296 298 298 297 294 290 287 283 281 279 279 279 279 280 282 282 282 282 282 281 281 279 276 274 273 272 272 272
275 276 276 276 276 276 276 278 282 285 288 290 292 294 295 297 299 299 298 296 292 289 286 284 283 281 278 277 278 279 280 280 281 281 281 278 274 272 271 270 269 269